TimeEST,TemperatureF,Dew PointF,Humidity,Sea Level PressureIn,VisibilityMPH,Wind Direction,Wind SpeedMPH,Gust SpeedMPH,PrecipitationIn,Events,Conditions,WindDirDegrees,DateUTC
12:26 AM,62.6,60.8,94,30.06,1.8,ESE,3.5,-,N/A,,Overcast,120,2012-12-09 05:26:00
12:53 AM,63.0,62.1,97,30.05,1.8,ESE,4.6,-,N/A,,Overcast,120,2012-12-09 05:53:00
1:53 AM,63.0,62.1,97,30.06,1.8,ESE,3.5,-,N/A,,Overcast,110,2012-12-09 06:53:00
2:53 AM,64.0,62.1,93,30.05,1.8,ESE,4.6,-,N/A,,Overcast,110,2012-12-09 07:53:00
3:22 AM,64.4,62.6,94,30.05,3.0,Calm,Calm,-,N/A,,Overcast,0,2012-12-09 08:22:00
3:53 AM,64.0,62.1,93,30.05,5.0,ESE,3.5,-,N/A,,Overcast,120,2012-12-09 08:53:00
4:25 AM,64.4,62.6,94,30.05,8.0,Calm,Calm,-,N/A,,Overcast,0,2012-12-09 09:25:00
4:53 AM,64.0,62.1,93,30.05,9.0,ESE,3.5,-,N/A,,Overcast,110,2012-12-09 09:53:00
5:53 AM,64.0,62.1,93,30.06,10.0,East,3.5,-,N/A,,Overcast,100,2012-12-09 10:53:00
6:15 AM,64.4,62.6,94,30.07,10.0,East,4.6,-,N/A,,Overcast,90,2012-12-09 11:15:00
6:30 AM,64.4,62.6,94,30.07,10.0,ESE,3.5,-,N/A,,Overcast,110,2012-12-09 11:30:00
6:53 AM,64.0,62.1,93,30.08,10.0,ESE,3.5,-,N/A,,Overcast,110,2012-12-09 11:53:00
7:20 AM,64.4,60.8,88,30.08,10.0,ESE,3.5,-,N/A,,Overcast,110,2012-12-09 12:20:00
7:36 AM,64.4,60.8,88,30.09,10.0,Calm,Calm,-,N/A,,Overcast,0,2012-12-09 12:36:00
7:53 AM,64.0,62.1,93,30.09,10.0,Calm,Calm,-,N/A,,Overcast,0,2012-12-09 12:53:00
8:32 AM,64.4,62.6,94,30.10,10.0,Calm,Calm,-,N/A,,Overcast,0,2012-12-09 13:32:00
8:53 AM,64.9,62.1,90,30.11,10.0,Calm,Calm,-,N/A,,Overcast,0,2012-12-09 13:53:00
9:53 AM,66.9,60.1,79,30.12,10.0,Calm,Calm,-,N/A,,Overcast,0,2012-12-09 14:53:00
10:53 AM,68.0,60.1,76,30.11,10.0,Calm,Calm,-,N/A,,Mostly Cloudy,0,2012-12-09 15:53:00
11:12 AM,71.6,60.8,69,30.11,10.0,Calm,Calm,-,N/A,,Mostly Cloudy,0,2012-12-09 16:12:00
11:29 AM,71.6,59.0,64,30.11,10.0,Calm,Calm,-,N/A,,Scattered Clouds,0,2012-12-09 16:29:00
11:53 AM,72.0,59.0,64,30.09,10.0,Calm,Calm,-,N/A,,Scattered Clouds,0,2012-12-09 16:53:00
12:53 PM,75.9,57.0,52,30.06,10.0,WSW,5.8,-,N/A,,Partly Cloudy,250,2012-12-09 17:53:00
1:53 PM,75.0,57.0,53,30.04,10.0,Variable,3.5,-,N/A,,Mostly Cloudy,0,2012-12-09 18:53:00
2:53 PM,77.0,57.9,52,30.02,10.0,North,3.5,-,N/A,,Scattered Clouds,10,2012-12-09 19:53:00
3:53 PM,77.0,57.0,50,30.02,10.0,WNW,6.9,-,N/A,,Scattered Clouds,290,2012-12-09 20:53:00
4:53 PM,75.0,57.0,53,30.02,10.0,West,3.5,-,N/A,,Partly Cloudy,280,2012-12-09 21:53:00
5:53 PM,70.0,61.0,73,30.02,10.0,SSE,4.6,-,N/A,,Clear,160,2012-12-09 22:53:00
6:53 PM,66.9,61.0,81,30.03,10.0,South,3.5,-,N/A,,Clear,180,2012-12-09 23:53:00
7:53 PM,64.0,60.1,87,30.04,10.0,Calm,Calm,-,N/A,,Clear,0,2012-12-10 00:53:00
8:41 PM,62.6,60.8,94,30.05,10.0,ESE,3.5,-,N/A,,Scattered Clouds,120,2012-12-10 01:41:00
8:51 PM,62.6,60.8,94,30.04,9.0,SE,3.5,-,N/A,,Mostly Cloudy,130,2012-12-10 01:51:00
8:53 PM,63.0,60.1,90,30.04,8.0,SE,3.5,-,N/A,,Mostly Cloudy,130,2012-12-10 01:53:00
8:59 PM,62.6,60.8,94,30.04,1.8,ESE,3.5,-,N/A,,Mostly Cloudy,120,2012-12-10 01:59:00
9:08 PM,62.6,60.8,94,30.04,0.2,SE,4.6,-,N/A,Fog,Fog,130,2012-12-10 02:08:00
9:53 PM,62.1,60.1,93,30.04,0.2,SSE,3.5,-,N/A,Fog,Fog,160,2012-12-10 02:53:00
10:53 PM,62.1,60.1,93,30.03,0.2,SE,3.5,-,N/A,Fog,Fog,140,2012-12-10 03:53:00
11:53 PM,62.1,60.1,93,30.02,0.2,South,3.5,-,N/A,Fog,Fog,170,2012-12-10 04:53:00